**Search for your results by entering your last name OR bib number OR search by age group to compare your stats with others
Individual Search
 
Bib:
Last Name:
All Participants Search
 
Top Ten Women
PlaceNameTimePace
1.Dani Fischer1:21:56.756:15/M
2.Cara Gaines1:23:46.376:24/M
3.Andrea Doogs1:28:40.886:46/M
4.Angela Yochum1:29:30.136:50/M
5.Lynnae Yat1:33:51.757:10/M
6.Andrea Gibson1:34:35.027:13/M
7.Monica Musk1:35:59.347:20/M
8.Anna Schreiner1:36:48.257:23/M
9.Lindsey Reynolds1:36:53.847:24/M
10.Laura Hayman1:37:30.477:27/M
Top Ten Men
PlaceNameTimePace
1.Michael Moore1:14:46.025:42/M
2.Mike Horan1:15:43.885:47/M
3.Josh Heird1:16:47.535:52/M
4.David Grieshaber1:18:30.256:00/M
5.Andreas Døble1:19:01.336:02/M
6.Brian Knight1:19:22.576:04/M
7.Mike Deren1:19:49.666:06/M
8.Andy Fenton1:19:58.836:06/M
9.Joseph Reynolds1:21:27.106:13/M
10.Justin Wells1:22:40.566:19/M
Contact us for results help

Gallery of Events

Contact Us

Address:
172 Trademark Drive
Buda, Texas 78610

Phone:
(512) 386 - 7966

Email:
info@cadencesports.com